Hourly Data Report for September 10, 2017

All times are specified in Local Standard Time (LST). Add 1 hour to adjust for Daylight Saving Time where and when it is observed.

SUMMERSIDE
PRINCE EDWARD ISLAND

46°26'28.000" N
63°50'17.000" W
12.20 m
8300596
71702
WSD

Download Data

Hourly Data (September 2017)
Hourly Data Report for September 10, 2017
Temp Definition
°C
Dew Point Temp Definition
°C
Rel Hum Definition
%
Wind Dir Definition
10's deg

Wind Spd Definition
km/h
Visibility Definition
km
Stn Press Definition
kPa
Hmdx Definition


Wind Chill Definition


Weather Definition


TIME
00:00 15.3 12.9 86 3 23   102.12     LegendNANA
01:00 15.3 13.6 90 2 19   102.12     LegendNANA
02:00 15.0 13.1 89 2 21   102.10     LegendNANA
03:00 14.8 12.6 87 2 22   102.08     LegendNANA
04:00 14.4 11.9 85 2 26   102.11     LegendNANA
05:00 14.2 11.0 81 2 20   102.15     LegendNANA
06:00 13.6 10.6 82 1 19   102.20     LegendNANA
07:00 14.3 9.8 75 2 23   102.23     LegendNANA
08:00 14.5 10.2 76 3 20   102.22     LegendNANA
09:00 15.3 10.2 72 2 24   102.25     LegendNANA
10:00 15.8 10.6 71 2 23   102.24     LegendNANA
11:00 16.0 11.1 72 4 23   102.23     LegendNANA
12:00 15.1 10.3 73 3 20   102.17     LegendNANA
13:00 16.4 10.7 69 3 20   102.12     LegendNANA
14:00 16.4 11.0 70 1 18   102.06     LegendNANA
15:00 16.2 11.3 73 3 19   102.00     LegendNANA
16:00 16.3 10.0 67 2 17   101.95     LegendNANA
17:00 15.9 10.5 70 3 12   101.92     LegendNANA
18:00 13.7 10.5 81 4 10   101.90     LegendNANA
19:00 12.4 10.2 87 1 7   101.91     LegendNANA
20:00 11.0 9.7 92 32 4   101.92     LegendNANA
21:00 10.7 9.7 94 30 3   101.87     LegendNANA
22:00 10.6 9.8 95 25 2   101.81     LegendNANA
23:00 10.2 9.4 95 26 4   101.77     LegendNANA

Notes on Data Quality.

Legend

  • E = Estimated
  • M = Missing
  • NA = Not Available
  • ‡ = Partner data that is not subject to review by the National Climate Archives
Date modified: